Location: Port Colborne
(42.8865°N, 79.2509°W)
Time: 01:05:35
(UTC-04:00)

OTV 5 (USA 277) - Pass Details

Date: 01 September 2019
Orbit: 310 x 324 km, 54.5° (Epoch: 08 October)

Event Time Altitude Azimuth Distance (km) Brightness Sun altitude
Rises 20:20:02 0° 287° (WNW) 2,040 ? -5.8°
Reaches altitude 10° 20:23:20 10° 332° (NNW) 1,210 ? -6.4°
Maximum altitude 20:23:55 11° 344° (NNW) 1,183 ? -6.5°
Drops below altitude 10° 20:24:30 10° 357° (N) 1,210 ? -6.6°
Sets 20:27:48 0° 42° (NE) 2,038 ? -7.2°
